Погода в Сельве-ди-Валь-Гардене

Италия     46°33′21″N   11°45′21″E
темп.,
°C
ветер,
м/с
пор.,
м/с
влажн.,
%
обл.,
%
осадки,
мм/ч
давл.,
гПа
погр.,
м
21 января, чт
чт2101:00−8ююз229494 0.1 101622
04:00−6ю229499 0.0 101532
07:00−7ю229388 0.1 101522
10:00−3ю129478 0.1 1015127
13:00−1ююз139287 0.5 1013391
16:00−2ююз129799 0.4 1012174
19:00−5ююв229696 0.5 101241
22:00−5ююв2295100 0.1 101068
22 января, пт
пт2201:00−4ююв2397100 1.0 100778
04:00−2ююв2397100 2.6 1004101
07:00−3ю2298100 5.8 100377
10:00−1ююз2396100 1.8 1002209
13:000ююз239893 2.3 1000370
16:00−1юв239498 0.1 998231
19:00−3вюв229799 3.9 99698
22:00−2вюв2397100 9.1 992118
23 января, сб
сб2301:00−2юв2398100 20.0 991174
04:00−3вюв2395100 2.1 992131
07:00−5в1295100 3.2 99540
10:00−3св1197100 2.1 996177
13:00−4ссз2298100 6.0 995274
16:00−5с2397100 4.4 995257
19:00−7с2298100 6.0 99780
22:00−11св1293100 0.0 99822
24 января, вс
вс2401:00−10ссв1288100 0.0 99822
04:00−11св1288100 0.0 99822
07:00−13св128370 0.0 100021
10:00−9ссв228548 0.0 100194
13:00−6с228368 0.0 1001444
16:00−8св1289100 0.0 100122
19:00−13вюв1276100 0.0 100421
22:00−14юв116939 0.0 100420
25 января, пн
пн2501:00−14всв117147 0.0 100421
04:00−14св1176100 0.0 100520
07:00−13св1267100 0.0 100721
10:00−10с1279100 0.0 100966
13:00−8ссз1276100 0.0 1009542
16:00−9сз128734 0.2 101121
19:00−15вюв118120 0.2 101520
22:00−15с017927 0.0 101620